TimePST,TemperatureF,Dew PointF,Humidity,Sea Level PressureIn,VisibilityMPH,Wind Direction,Wind SpeedMPH,Gust SpeedMPH,PrecipitationIn,Events,Conditions,WindDirDegrees,DateUTC
12:00 AM,45.7,43.9,93,30.28,-9999.0,South,9.2,-,N/A,,Unknown,190,2012-11-15 08:00:00
1:00 AM,45.5,43.2,92,30.25,-9999.0,SE,17.3,25.3,N/A,,Unknown,130,2012-11-15 09:00:00
2:00 AM,45.7,43.9,93,30.24,-9999.0,ESE,17.3,-,N/A,,Unknown,110,2012-11-15 10:00:00
3:00 AM,45.7,44.2,95,30.23,-9999.0,ESE,12.7,20.7,N/A,,Unknown,120,2012-11-15 11:00:00
4:00 AM,45,44,94,30.20,,ESE,12.7,,,,,120,2012-11-15 12:00:00
4:00 AM,45.1,43.9,95,30.20,-9999.0,ESE,12.7,19.6,N/A,,Unknown,120,2012-11-15 12:00:00
5:00 AM,45.7,43.2,91,30.18,-9999.0,SSE,20.7,-,0.02,,Unknown,150,2012-11-15 13:00:00
6:00 AM,45.1,43.9,95,30.17,-9999.0,SSE,18.4,-,N/A,,Unknown,150,2012-11-15 14:00:00
7:00 AM,45.7,44.2,95,30.15,-9999.0,SE,10.4,-,N/A,,Unknown,130,2012-11-15 15:00:00
8:00 AM,45.1,43.9,95,30.14,-9999.0,SE,17.3,-,N/A,,Unknown,140,2012-11-15 16:00:00
9:00 AM,45.3,44.4,97,30.11,-9999.0,SSE,19.6,-,0.03,,Unknown,150,2012-11-15 17:00:00
10:00 AM,45,44,95,30.09,,ESE,20.7,,,,,110,2012-11-15 18:00:00
10:00 AM,45.0,44.1,97,30.09,-9999.0,ESE,20.7,-,N/A,,Unknown,110,2012-11-15 18:00:00
11:00 AM,45.7,44.8,97,30.08,-9999.0,SE,18.4,25.3,0.02,,Unknown,140,2012-11-15 19:00:00
12:00 PM,45.5,44.2,95,30.05,-9999.0,SSE,20.7,-,0.09,,Unknown,160,2012-11-15 20:00:00
1:00 PM,45.7,44.1,94,30.04,-9999.0,SSE,20.7,-,0.02,,Unknown,160,2012-11-15 21:00:00
2:00 PM,45.1,43.9,95,30.02,-9999.0,South,20.7,-,N/A,,Unknown,170,2012-11-15 22:00:00
3:00 PM,45.5,44.1,95,29.99,-9999.0,SSE,21.9,-,N/A,,Unknown,160,2012-11-15 23:00:00
4:00 PM,46,43,84,29.96,,SSE,24.2,,,,,160,2012-11-16 00:00:00
4:00 PM,46.4,42.6,87,29.96,-9999.0,SSE,24.2,-,N/A,,Unknown,160,2012-11-16 00:00:00
5:00 PM,46.4,43.7,90,29.94,-9999.0,SSE,21.9,-,N/A,,Unknown,150,2012-11-16 01:00:00
6:00 PM,45.9,43.2,90,29.91,-9999.0,SSE,26.5,-,N/A,,Unknown,160,2012-11-16 02:00:00
7:00 PM,45.9,43.3,91,29.90,-9999.0,SSE,27.6,-,N/A,,Unknown,160,2012-11-16 03:00:00
8:00 PM,46.6,42.4,85,29.87,-9999.0,SSE,27.6,-,N/A,,Unknown,150,2012-11-16 04:00:00
9:00 PM,46.9,41.9,83,29.85,-9999.0,SSE,29.9,-,N/A,,Unknown,160,2012-11-16 05:00:00
10:00 PM,46,43,87,29.82,,ESE,23.0,,,,,120,2012-11-16 06:00:00
10:00 PM,46.4,43.3,89,29.82,-9999.0,ESE,23.0,33.4,N/A,,Unknown,120,2012-11-16 06:00:00
11:00 PM,47.5,40.8,78,29.79,-9999.0,SSE,32.2,40.3,N/A,,Unknown,150,2012-11-16 07:00:00